Weather History for Pittsfield, IL

Change the Weather History Date:

Tuesday, August 20, 2013

  Actual Average (KUIN) Record (KUIN)
Temperature  
Mean Temperature 74 °F 74 °F  
Max Temperature 87 °F 84 °F 104 °F (1936)
Min Temperature 63 °F 64 °F 42 °F (1950)
Degree Days  
Heating Degree Days 0 0  
Month to date heating degree days 0  
Since 1 June heating degree days 16  
Since 1 July heating degree days 0  
Cooling Degree Days 10 9  
Month to date cooling degree days 204  
Year to date cooling degree days 860  
Since 1 June cooling degree days 774  
Growing Degree Days 24 (Base 50)    
Moisture  
Dew Point 65 °F    
Average Humidity 73    
Maximum Humidity 92    
Minimum Humidity 47    
Precipitation  
Precipitation 0.00 in 0.12 in 1.92 in (1951)
Month to date precipitation 2.36  
Year to date precipitation 24.48  
Sea Level Pressure  
Sea Level Pressure 30.09 in    
Wind  
Wind Speed 3 mph (SSE)    
Max Wind Speed 8 mph    
Max Gust Speed -    
Visibility 8 miles    
Events      
T = Trace of Precipitation, MM = Missing Value Source: NWS Daily Summary

Daily Weather History Graph

Daily Weather History Graph

Search for Another Location

Airport:

Trip Planner

Search our weather history database for the weather conditions in past years. The results will help you decide how hot, cold, wet, or windy it might be!

Date:

Astronomy

Aug. 20, 2013 Rise Set
Actual Time 6:20 AM CDT 7:51 PM CDT
Civil Twilight 5:51 AM CDT 8:20 PM CDT
Nautical Twilight 5:17 AM CDT 8:54 PM CDT
Astronomical Twilight 4:41 AM CDT 9:30 PM CDT
Moon 7:23 PM CDT (8/20) 5:50 AM CDT (8/20)
Length of Visible Light 14h 28m
Length of Day
13h 31m
Full, 100% of the Moon is Illuminated
Aug 20
Full
Aug 20
Full
Aug 28
Last Quarter
Sep 5
New
Sep 12
First Quarter

Hourly Weather History & Observations

Time (CDT) Temp. Heat Index Dew Point Humidity Pressure Visibility Wind Dir Wind Speed Gust Speed Precip Events Conditions
12:15 AM 67.8 °F - 63.1 °F 85% 30.09 in 7.0 mi Calm Calm - N/A   Clear
12:35 AM 67.1 °F - 62.6 °F 85% 30.09 in 7.0 mi SSE 4.6 mph - N/A   Clear
12:55 AM 67.1 °F - 62.6 °F 85% 30.09 in 7.0 mi SSE 4.6 mph - N/A   Clear
1:15 AM 67.1 °F - 62.2 °F 84% 30.08 in 7.0 mi South 4.6 mph - N/A   Clear
1:35 AM 67.6 °F - 62.1 °F 82% 30.08 in 10.0 mi South 4.6 mph - N/A   Clear
1:55 AM 68.0 °F - 62.1 °F 81% 30.08 in 7.0 mi SSE 4.6 mph - N/A   Clear
2:15 AM 67.5 °F - 61.9 °F 82% 30.08 in 7.0 mi South 3.5 mph - N/A   Clear
2:35 AM 67.3 °F - 61.9 °F 83% 30.08 in 10.0 mi South 3.5 mph - N/A   Clear
2:55 AM 67.1 °F - 61.9 °F 83% 30.08 in 10.0 mi SSE 3.5 mph - N/A   Clear
3:15 AM 66.4 °F - 61.7 °F 85% 30.08 in 7.0 mi Calm Calm - N/A   Clear
3:35 AM 66.7 °F - 61.5 °F 83% 30.08 in 10.0 mi SSE 3.5 mph - N/A   Clear
3:55 AM 65.5 °F - 61.3 °F 86% 30.08 in 7.0 mi SSE 3.5 mph - N/A   Clear
4:15 AM 65.1 °F - 61.2 °F 87% 30.08 in 7.0 mi Calm Calm - N/A   Clear
4:35 AM 64.8 °F - 61.0 °F 88% 30.07 in 7.0 mi Calm Calm - N/A   Clear
4:55 AM 65.3 °F - 61.5 °F 88% 30.08 in 7.0 mi Calm Calm - N/A   Clear
5:15 AM 64.9 °F - 61.3 °F 88% 30.08 in 5.0 mi Calm Calm - N/A   Clear
5:35 AM 63.7 °F - 60.8 °F 90% 30.08 in 5.0 mi SSE 3.5 mph - N/A   Clear
5:55 AM 63.9 °F - 61.0 °F 90% 30.09 in 5.0 mi Calm Calm - N/A   Clear
6:15 AM 63.5 °F - 60.6 °F 90% 30.10 in 5.0 mi Calm Calm - N/A   Clear
6:35 AM 63.1 °F - 60.8 °F 92% 30.11 in 3.0 mi Calm Calm - N/A   Clear
6:55 AM 63.9 °F - 61.3 °F 91% 30.11 in 2.5 mi Calm Calm - N/A   Clear
7:15 AM 66.2 °F - 62.6 °F 88% 30.11 in 5.0 mi Calm Calm - N/A   Clear
7:35 AM 67.3 °F - 63.7 °F 88% 30.12 in 4.0 mi Calm Calm - N/A   Clear
7:55 AM 67.8 °F - 64.4 °F 89% 30.12 in 4.0 mi Calm Calm - N/A   Clear
8:15 AM 69.6 °F - 65.7 °F 87% 30.12 in 5.0 mi Calm Calm - N/A   Clear
8:35 AM 71.8 °F - 66.0 °F 82% 30.13 in 5.0 mi Calm Calm - N/A   Haze
8:55 AM 73.4 °F - 66.6 °F 79% 30.13 in 7.0 mi South 3.5 mph - N/A   Clear
9:15 AM 74.7 °F - 67.1 °F 77% 30.13 in 10.0 mi South 3.5 mph - N/A   Clear
9:35 AM 76.5 °F - 67.5 °F 74% 30.13 in 10.0 mi SSW 4.6 mph - N/A   Clear
9:55 AM 77.4 °F - 68.0 °F 73% 30.13 in 10.0 mi South 3.5 mph - N/A   Clear
10:15 AM 79.0 °F - 67.6 °F 68% 30.13 in 10.0 mi Calm Calm - N/A   Clear
10:35 AM 80.6 °F 83.5 °F 68.5 °F 67% 30.13 in 10.0 mi Calm Calm - N/A   Clear
10:55 AM 81.5 °F 84.4 °F 68.4 °F 64% 30.13 in 10.0 mi SSE 3.5 mph - N/A   Clear
11:15 AM 82.9 °F 85.8 °F 67.6 °F 60% 30.13 in 10.0 mi South 5.8 mph - N/A   Clear
11:35 AM 81.7 °F 84.0 °F 66.7 °F 60% 30.12 in 10.0 mi SSE 5.8 mph - N/A   Clear
11:55 AM 83.8 °F 86.7 °F 67.5 °F 58% 30.12 in 10.0 mi South 5.8 mph - N/A   Scattered Clouds
12:15 PM 84.2 °F 86.3 °F 66.0 °F 54% 30.12 in 10.0 mi SSW 4.6 mph - N/A   Scattered Clouds
12:35 PM 84.4 °F 86.6 °F 66.0 °F 54% 30.11 in 10.0 mi South 6.9 mph - N/A   Mostly Cloudy
12:55 PM 84.6 °F 87.4 °F 67.5 °F 56% 30.11 in 10.0 mi SSE 4.6 mph - N/A   Scattered Clouds
1:15 PM 85.6 °F 87.1 °F 64.6 °F 49% 30.11 in 10.0 mi SSE 4.6 mph - N/A   Clear
1:35 PM 85.8 °F 88.2 °F 66.6 °F 52% 30.10 in 10.0 mi SSE 5.8 mph - N/A   Clear
1:55 PM 85.6 °F 87.9 °F 66.2 °F 52% 30.10 in 10.0 mi ESE 5.8 mph - N/A   Clear
2:15 PM 86.4 °F 88.1 °F 65.3 °F 49% 30.09 in 10.0 mi SE 4.6 mph - N/A   Scattered Clouds
2:35 PM 86.2 °F 87.9 °F 64.9 °F 49% 30.09 in 10.0 mi SSE 4.6 mph - N/A   Scattered Clouds
2:55 PM 86.9 °F 88.3 °F 64.6 °F 47% 30.08 in 10.0 mi South 5.8 mph - N/A   Scattered Clouds
3:15 PM 86.4 °F 88.4 °F 65.5 °F 50% 30.08 in 10.0 mi ESE 4.6 mph - N/A   Scattered Clouds
3:35 PM 84.0 °F 86.5 °F 66.6 °F 56% 30.07 in 10.0 mi SE 5.8 mph - N/A   Scattered Clouds
3:55 PM 84.7 °F 86.8 °F 65.8 °F 53% 30.07 in 10.0 mi ESE 4.6 mph - N/A   Scattered Clouds
4:15 PM 85.1 °F 87.1 °F 65.8 °F 52% 30.07 in 10.0 mi SSE 5.8 mph - N/A   Clear
4:35 PM 85.3 °F 87.6 °F 66.4 °F 53% 30.06 in 10.0 mi South 8.1 mph - N/A   Clear
4:55 PM 84.9 °F 87.4 °F 66.4 °F 54% 30.06 in 10.0 mi SE 6.9 mph - N/A   Clear
5:15 PM 84.2 °F 86.6 °F 66.2 °F 55% 30.06 in 10.0 mi SE 4.6 mph - N/A   Clear
5:35 PM 84.0 °F 86.0 °F 65.8 °F 54% 30.06 in 10.0 mi SE 5.8 mph - N/A   Clear
5:55 PM 83.7 °F 86.0 °F 66.4 °F 56% 30.05 in 10.0 mi SE 5.8 mph - N/A   Clear
6:15 PM 83.1 °F 85.7 °F 66.7 °F 58% 30.05 in 10.0 mi SE 5.8 mph - N/A   Clear
6:35 PM 82.2 °F 84.7 °F 67.3 °F 60% 30.05 in 10.0 mi SE 3.5 mph - N/A   Clear
6:55 PM 80.8 °F 83.5 °F 68.0 °F 65% 30.05 in 10.0 mi SE 3.5 mph - N/A   Clear
7:15 PM 79.0 °F - 68.0 °F 69% 30.06 in 10.0 mi SE 4.6 mph - N/A   Clear
7:35 PM 77.2 °F - 68.0 °F 73% 30.06 in 10.0 mi SE 4.6 mph - N/A   Clear
7:55 PM 76.1 °F - 66.9 °F 73% 30.06 in 10.0 mi SE 4.6 mph - N/A   Clear
8:15 PM 74.8 °F - 66.4 °F 75% 30.06 in 10.0 mi SSE 3.5 mph - N/A   Clear
8:35 PM 74.3 °F - 66.2 °F 76% 30.07 in 10.0 mi SE 3.5 mph - N/A   Clear
8:55 PM 73.4 °F - 65.8 °F 77% 30.07 in 10.0 mi SE 4.6 mph - N/A   Clear
9:15 PM 72.0 °F - 65.8 °F 81% 30.08 in 10.0 mi Calm Calm - N/A   Clear
9:35 PM 72.0 °F - 66.0 °F 81% 30.08 in 10.0 mi Calm Calm - N/A   Clear
9:55 PM 72.0 °F - 66.0 °F 81% 30.08 in 10.0 mi Calm Calm - N/A   Clear
10:15 PM 70.7 °F - 65.7 °F 84% 30.09 in 10.0 mi SSE 3.5 mph - N/A   Clear
10:35 PM 70.3 °F - 65.7 °F 85% 30.09 in 7.0 mi South 3.5 mph - N/A   Clear
10:55 PM 70.2 °F - 65.3 °F 85% 30.09 in 7.0 mi South 3.5 mph - N/A   Clear
11:15 PM 70.3 °F - 65.3 °F 84% 30.09 in 7.0 mi SSE 3.5 mph - N/A   Clear
11:35 PM 69.8 °F - 64.9 °F 84% 30.08 in 10.0 mi SSE 3.5 mph - N/A   Clear
11:55 PM 69.8 °F - 64.8 °F 84% 30.08 in 7.0 mi SSE 3.5 mph - N/A   Clear